Home > Time Zones > World Clock > Weather > China > Sian > Past weeks

Flag for China Weather past 2 weeks in Sian, Shaanxi, China

Now
59 °F

Partly sunny.


Feels Like: 57 °F
Forecast: 44 / 70 °F
Wind: 10 mph from West

Location: Xian/Xianyang

Current Time: Apr 19, 2015 at 12:14:27 PM

Latest Report: Apr 19, 2015 at 11:00 AM


Visibility: N/A

Pressure: 30.04 "Hg

Humidity: 77%

Dew point: 52 °F

Location of SianLocation

Historic Weather in Sian — Graph

°F

Sian temperature yesterday

Maximum temperature yesterday: 61 °F (at 2:00 PM)
Minimum temperature yesterday: 55 °F (at 2:00 AM)
Average temperature yesterday: 57 °F

Past Weeks' High & Low Weather Summary

 TemperatureHumidityPressure
High82 °F (Apr 15, 2:00 PM)100% (Apr 5, 12:00 AM)30.54 "Hg (Apr 5, 12:00 AM)
Low32 °F (Apr 14, 5:00 AM)14% (Apr 12, 12:00 PM)29.65 "Hg (Apr 17, 5:00 PM)
Average56 °F63%30.07 "Hg
* Reported Apr 4 10:00 AM — Apr 19 10:00 AM, Sian, Weather by CustomWeather, © 2015

Note: Actual official high and low records may vary slightly from our data, if they occured in-between our weather recording intervals... More about our weather records

Advertising

Sian weather history for previous 24 hours

 ConditionsComfort  
Time TempWeatherWind HumidityBarometerVisibility
10:00 AM
Sun, Apr 19
55 °FLight rain. More clouds than sun.8 mph88%30.04 "HgN/A
9:00 AM54 °FMore clouds than sun.10 mph94%30.04 "Hg4 mi
8:00 AM54 °FLight rain. Overcast.8 mph94%30.01 "Hg4 mi
7:00 AM54 °FLight rain. Mostly cloudy.6 mph94%30.01 "Hg4 mi
6:00 AM54 °FRain. Mostly cloudy.8 mph94%29.98 "Hg4 mi
5:00 AM54 °FRain. Mostly cloudy.8 mph94%29.98 "Hg4 mi
4:00 AM54 °FLight rain. Mostly cloudy.8 mph94%29.95 "Hg4 mi
3:00 AM54 °FLight rain. Mostly cloudy.8 mph94%29.95 "Hg4 mi
2:00 AM54 °FLight rain. Mostly cloudy.8 mph94%29.95 "Hg4 mi
1:00 AM55 °FLight rain. Mostly cloudy.6 mph82%29.98 "HgN/A
12:00 AM55 °FOvercast.3 mph82%29.95 "HgN/A
11:00 PM
Sat, Apr 18
55 °FOvercast.3 mph82%29.95 "HgN/A
10:00 PM55 °FOvercast.3 mph82%29.95 "HgN/A
9:00 PM55 °FOvercast.1 mph82%29.92 "HgN/A
8:00 PM55 °FOvercast.3 mph82%29.92 "HgN/A
7:00 PM57 °FOvercast.3 mph77%29.89 "HgN/A
6:00 PM57 °FOvercast.3 mph82%29.89 "HgN/A
5:00 PM57 °FMostly cloudy.6 mph82%29.86 "HgN/A
4:00 PM57 °FLight rain. Overcast.6 mph88%29.86 "Hg5 mi
3:00 PM57 °FLight rain. Overcast.13 mph82%29.86 "Hg5 mi
2:00 PM61 °FPassing clouds.15 mph68%29.86 "Hg5 mi
1:00 PM59 °FMore clouds than sun.10 mph72%29.86 "Hg5 mi
12:00 PM57 °FLight rain. More clouds than sun.10 mph82%29.86 "Hg4 mi
Weather by CustomWeather, © 2015

See weather overviewHow to use our weather pages